BADR-5

Last updated on Thu Aug 13 2026 00:02:58 GMT+0000 (Coordinated Universal Time)

1 36592U 10025A 26224.57807483 .00000136 00000+0 00000+0 0 9999 2 36592 0.0444 119.8589 0006538 85.1967 354.5441 1.00270643 53780
UTC large
Height (km)
Speed (km/s)
/
Latitude / Longitude
Inclination (degrees)
Orbital Period (minutes)
Azimuth
Elevation
Range (km)
Doppler Factor

Next 0 passes for location: London (51.5072 / 0.1276)

No passes found over London.
BADR-5